CDT,Max TemperatureF,Mean TemperatureF,Min TemperatureF,Max Dew PointF,MeanDew PointF,Min DewpointF,Max Humidity, Mean Humidity, Min Humidity, Max Sea Level PressureIn, Mean Sea Level PressureIn, Min Sea Level PressureIn, Max VisibilityMiles, Mean VisibilityMiles, Min VisibilityMiles, Max Wind SpeedMPH, Mean Wind SpeedMPH, Max Gust SpeedMPH,PrecipitationIn, CloudCover, Events, WindDirDegrees
2013-6-1,96,83,70,63,52,32,66,37,21,29.88,29.75,29.63,10,10,9,23,12,31,0.00,0,,15
2013-6-2,89,78,69,62,56,47,60,45,36,29.97,29.89,29.78,10,10,10,22,13,32,0.00,2,,116
2013-6-3,81,73,68,62,53,49,58,49,37,29.88,29.84,29.76,10,10,10,29,12,43,0.00,0,,188
2013-6-4,102,93,84,54,44,33,27,18,11,29.87,29.70,29.65,10,10,10,24,16,34,0.00,0,Rain,197
2013-6-5,102,90,77,48,42,33,32,21,9,29.72,29.67,29.61,10,10,10,24,12,32,0.00,0,,191
2013-6-6,88,76,64,59,54,43,70,47,24,29.92,29.83,29.64,10,10,5,30,15,48,0.00,2,,58
2013-6-7,88,75,63,61,55,50,88,54,28,30.12,29.89,29.77,10,10,10,22,12,31,0.00,1,Rain,110
2013-6-8,97,82,66,62,55,42,79,47,17,29.83,29.72,29.61,10,10,10,24,14,34,0.00,0,,143
2013-6-9,93,83,73,64,56,48,68,43,23,29.95,29.77,29.61,10,10,10,28,17,38,0.00,0,,127
2013-6-10,97,84,71,65,54,41,78,42,14,29.90,29.85,29.80,10,10,10,18,12,25,0.00,0,,147
2013-6-11,96,83,71,62,55,48,66,41,20,29.89,29.85,29.79,10,10,10,23,12,31,0.00,0,,144
2013-6-12,95,82,69,63,60,53,81,52,25,29.91,29.86,29.81,10,10,9,23,16,31,0.00,0,,138
2013-6-13,91,80,69,65,63,58,87,62,37,30.06,29.90,29.82,10,10,7,21,14,32,0.04,2,Rain,139
2013-6-14,82,75,69,66,64,63,90,73,54,30.04,29.92,29.81,10,10,9,21,12,26,0.01,5,Rain,125
2013-6-15,93,80,66,67,62,55,90,62,28,30.04,29.87,29.78,10,10,8,18,8,26,0.00,1,,124
2013-6-16,97,83,70,68,64,55,90,59,27,29.90,29.85,29.81,10,9,6,17,11,24,0.00,0,,133
2013-6-17,93,82,69,68,64,59,87,61,38,30.06,29.85,29.78,10,9,3,26,11,43,0.01,1,Rain,159
2013-6-18,93,80,66,64,60,58,81,57,33,30.11,29.92,29.79,10,10,10,21,10,26,0.00,3,,96
2013-6-19,99,85,72,67,62,54,81,50,23,30.07,29.80,29.71,10,10,8,24,14,33,0.00,1,,144
2013-6-20,97,84,73,64,59,53,59,43,24,29.94,29.81,29.74,10,10,8,29,19,40,0.00,0,,150
2013-6-21,97,85,73,64,62,58,71,49,28,29.91,29.84,29.78,10,10,10,25,16,37,0.00,0,,149
2013-6-22,99,86,73,61,58,55,55,41,25,29.86,29.78,29.72,10,10,10,26,16,37,0.00,0,,154
2013-6-23,100,88,75,60,55,46,50,38,16,29.78,29.74,29.67,10,10,10,28,17,40,0.00,0,,149
2013-6-24,97,85,73,63,61,58,68,48,28,29.83,29.77,29.73,10,10,10,25,20,36,0.00,0,,150
2013-6-25,105,88,73,64,59,46,66,42,15,29.90,29.78,29.71,10,10,5,24,15,31,0.00,1,Rain,161
2013-6-26,108,90,75,64,56,35,67,39,9,29.81,29.77,29.72,10,10,10,22,13,30,0.00,0,,154
2013-6-27,104,88,73,62,52,37,66,35,10,29.90,29.84,29.80,10,10,10,20,14,26,0.00,0,,148
2013-6-28,99,84,69,57,51,46,54,32,16,29.98,29.90,29.83,10,10,10,15,9,22,0.00,0,,119
2013-6-29,104,88,75,52,49,39,44,26,12,29.90,29.82,29.74,10,10,10,17,8,24,0.00,0,,154
2013-6-30,93,83,73,59,55,45,54,39,25,30.01,29.87,29.79,10,10,7,25,11,36,0.00,1,,79